TAP1921 LPPR-LPPT

Flight info

Callsign TAP1921
Flight time 0h 39m
Altitude 37000
Route MANIK DCT ABRIL DCT XAMAX
Aircraft A319/M-SDE3FGHIRWY/LB1

Departure

Time 2026-05-06 21:16
Airport Francisco de Sá Carneiro Airport (LPPR)

Arrival

Time 2026-05-06 21:56
Airport Lisbon Humberto Delgado Airport (LPPT)
Time Latitude Longitude Altitude Speed Heading
2026-05-06 20:57 41.23988 -8.67628 234 ft 0 kts 258°
2026-05-06 21:05 41.23991 -8.67612 236 ft 2 kts 260°
2026-05-06 21:06 41.23994 -8.67590 239 ft 2 kts 259°
2026-05-06 21:06 41.23997 -8.67569 241 ft 2 kts 258°
2026-05-06 21:06 41.24001 -8.67548 237 ft 2 kts 262°
2026-05-06 21:06 41.23999 -8.67526 238 ft 2 kts 320°
2026-05-06 21:07 41.23987 -8.67518 238 ft 0 kts 349°
2026-05-06 21:10 41.23993 -8.67516 238 ft 1 kts 21°
2026-05-06 21:10 41.23986 -8.67486 239 ft 7 kts 137°
2026-05-06 21:10 41.23944 -8.67503 238 ft 8 kts 192°
2026-05-06 21:11 41.23887 -8.67494 239 ft 8 kts 168°
2026-05-06 21:11 41.23831 -8.67478 239 ft 9 kts 168°
2026-05-06 21:11 41.23750 -8.67457 238 ft 13 kts 168°
2026-05-06 21:11 41.23655 -8.67432 238 ft 14 kts 169°
2026-05-06 21:12 41.23624 -8.67423 238 ft 15 kts 169°
2026-05-06 21:12 41.23565 -8.67408 239 ft 15 kts 169°
2026-05-06 21:12 41.23464 -8.67383 240 ft 15 kts 169°
2026-05-06 21:12 41.23384 -8.67360 239 ft 12 kts 168°
2026-05-06 21:13 41.23377 -8.67359 239 ft 12 kts 168°
2026-05-06 21:13 41.23331 -8.67440 238 ft 14 kts 259°
2026-05-06 21:13 41.23319 -8.67525 236 ft 0 kts 259°
2026-05-06 21:14 41.23318 -8.67530 236 ft 2 kts 259°
2026-05-06 21:15 41.23312 -8.67569 237 ft 6 kts 259°
2026-05-06 21:15 41.23302 -8.67640 236 ft 9 kts 259°
2026-05-06 21:15 41.23297 -8.67723 238 ft 8 kts 294°
2026-05-06 21:15 41.23341 -8.67742 238 ft 0 kts 351°
2026-05-06 21:16 41.23347 -8.67743 238 ft 9 kts 351°
2026-05-06 21:16 41.23720 -8.67841 228 ft 97 kts 348°
2026-05-06 21:16 41.24612 -8.68073 256 ft 156 kts 348°
2026-05-06 21:16 41.25659 -8.68346 997 ft 152 kts 348°
2026-05-06 21:17 41.26684 -8.68618 1790 ft 152 kts 349°
2026-05-06 21:17 41.27742 -8.68900 2434 ft 163 kts 349°
2026-05-06 21:17 41.28927 -8.69209 2862 ft 185 kts 349°
2026-05-06 21:17 41.30284 -8.69561 3285 ft 211 kts 349°
2026-05-06 21:18 41.30503 -8.69618 3360 ft 215 kts 349°
2026-05-06 21:18 41.30585 -8.69640 3388 ft 216 kts 349°
2026-05-06 21:18 41.32152 -8.70054 3915 ft 242 kts 348°
2026-05-06 21:18 41.33748 -8.70994 4589 ft 262 kts 321°
2026-05-06 21:19 41.34827 -8.72958 5515 ft 270 kts 290°
2026-05-06 21:19 41.34987 -8.75441 6521 ft 275 kts 257°
2026-05-06 21:19 41.34128 -8.77680 7512 ft 276 kts 225°
2026-05-06 21:19 41.32501 -8.78969 8546 ft 276 kts 193°
2026-05-06 21:20 41.30609 -8.78958 9691 ft 273 kts 169°
2026-05-06 21:20 41.29344 -8.78652 10319 ft 279 kts 170°
2026-05-06 21:20 41.26665 -8.78082 10815 ft 311 kts 172°
2026-05-06 21:20 41.24440 -8.77648 11142 ft 334 kts 172°
2026-05-06 21:21 41.22093 -8.77198 11676 ft 348 kts 172°
2026-05-06 21:21 41.19661 -8.76726 12355 ft 356 kts 172°
2026-05-06 21:21 41.18825 -8.76562 12631 ft 358 kts 172°
2026-05-06 21:21 41.14677 -8.75735 13880 ft 368 kts 172°
2026-05-06 21:22 41.12133 -8.75226 14586 ft 372 kts 172°
2026-05-06 21:22 41.09559 -8.74710 15305 ft 376 kts 172°
2026-05-06 21:22 41.06964 -8.74185 16050 ft 379 kts 172°
2026-05-06 21:22 41.04338 -8.73656 16744 ft 384 kts 172°
2026-05-06 21:23 41.02584 -8.73302 17225 ft 386 kts 173°
2026-05-06 21:23 40.99918 -8.72768 17969 ft 389 kts 172°
2026-05-06 21:23 40.97237 -8.72233 18682 ft 390 kts 173°
2026-05-06 21:23 40.93622 -8.71516 19489 ft 395 kts 173°
2026-05-06 21:24 40.91803 -8.71372 19853 ft 397 kts 183°
2026-05-06 21:24 40.89078 -8.72016 20449 ft 399 kts 196°
2026-05-06 21:24 40.86408 -8.73002 21146 ft 398 kts 196°
2026-05-06 21:24 40.83741 -8.74001 21783 ft 400 kts 196°
2026-05-06 21:25 40.81057 -8.75013 22297 ft 404 kts 196°
2026-05-06 21:25 40.78341 -8.76039 22807 ft 407 kts 196°
2026-05-06 21:25 40.75619 -8.77063 22944 ft 406 kts 196°
2026-05-06 21:25 40.72898 -8.78084 22964 ft 406 kts 196°
2026-05-06 21:26 40.70176 -8.79104 22961 ft 407 kts 196°
2026-05-06 21:26 40.67435 -8.80129 22963 ft 416 kts 196°
2026-05-06 21:26 40.64602 -8.81186 22965 ft 428 kts 196°
2026-05-06 21:26 40.61723 -8.82261 22964 ft 432 kts 196°
2026-05-06 21:27 40.58831 -8.83340 22964 ft 432 kts 196°
2026-05-06 21:27 40.55937 -8.84419 22961 ft 432 kts 196°
2026-05-06 21:27 40.53033 -8.85499 22967 ft 434 kts 196°
2026-05-06 21:27 40.50129 -8.86577 22966 ft 434 kts 196°
2026-05-06 21:28 40.47222 -8.87655 22967 ft 434 kts 196°
2026-05-06 21:28 40.44319 -8.88732 22966 ft 434 kts 196°
2026-05-06 21:28 40.41409 -8.89805 22965 ft 434 kts 196°
2026-05-06 21:28 40.38540 -8.90863 22964 ft 433 kts 196°
2026-05-06 21:29 40.35641 -8.91937 22955 ft 433 kts 196°
2026-05-06 21:29 40.32740 -8.93013 22951 ft 433 kts 196°
2026-05-06 21:29 40.29842 -8.94084 22951 ft 433 kts 196°
2026-05-06 21:29 40.26942 -8.95153 22950 ft 433 kts 196°
2026-05-06 21:30 40.24038 -8.96224 22950 ft 433 kts 196°
2026-05-06 21:30 40.21140 -8.97293 22951 ft 433 kts 196°
2026-05-06 21:30 40.18240 -8.98361 22953 ft 433 kts 196°
2026-05-06 21:30 40.15338 -8.99426 22953 ft 433 kts 196°
2026-05-06 21:31 40.12435 -9.00490 22949 ft 433 kts 196°
2026-05-06 21:31 40.09531 -9.01552 22950 ft 433 kts 196°
2026-05-06 21:31 40.06623 -9.02617 22950 ft 434 kts 196°
2026-05-06 21:31 40.03719 -9.03684 22951 ft 434 kts 196°
2026-05-06 21:32 40.00809 -9.04752 22953 ft 434 kts 196°
2026-05-06 21:32 39.94991 -9.06884 22957 ft 434 kts 196°
2026-05-06 21:32 39.92080 -9.07945 22960 ft 434 kts 196°
2026-05-06 21:33 39.89167 -9.09003 22961 ft 434 kts 196°
2026-05-06 21:33 39.86257 -9.10060 22982 ft 434 kts 196°
2026-05-06 21:33 39.83354 -9.11117 22987 ft 433 kts 196°
2026-05-06 21:33 39.80455 -9.12172 22983 ft 433 kts 196°
2026-05-06 21:34 39.77556 -9.13225 22986 ft 432 kts 196°
2026-05-06 21:34 39.74660 -9.14276 22987 ft 432 kts 197°
2026-05-06 21:34 39.71758 -9.15330 22982 ft 432 kts 197°
2026-05-06 21:34 39.68862 -9.16381 22981 ft 432 kts 196°
2026-05-06 21:35 39.65965 -9.17430 22977 ft 432 kts 196°
2026-05-06 21:35 39.63071 -9.18479 22971 ft 432 kts 196°
2026-05-06 21:35 39.60172 -9.19528 22969 ft 432 kts 196°
2026-05-06 21:35 39.57313 -9.20560 22972 ft 432 kts 196°
2026-05-06 21:36 39.54418 -9.21602 22971 ft 432 kts 196°
2026-05-06 21:36 39.51521 -9.22643 22970 ft 432 kts 196°
2026-05-06 21:36 39.48622 -9.23683 22230 ft 430 kts 196°
2026-05-06 21:36 39.45741 -9.24718 21184 ft 429 kts 197°
2026-05-06 21:37 39.42879 -9.25748 20287 ft 425 kts 197°
2026-05-06 21:37 39.40039 -9.26772 19457 ft 421 kts 197°
2026-05-06 21:37 39.37230 -9.27782 18631 ft 418 kts 196°
2026-05-06 21:37 39.34438 -9.28785 17816 ft 414 kts 197°
2026-05-06 21:38 39.31679 -9.29775 16994 ft 409 kts 197°
2026-05-06 21:38 39.28944 -9.30756 16199 ft 406 kts 197°
2026-05-06 21:38 39.26228 -9.31729 15453 ft 404 kts 197°
2026-05-06 21:38 39.23532 -9.32692 14775 ft 400 kts 197°
2026-05-06 21:39 39.20858 -9.33645 14117 ft 398 kts 197°
2026-05-06 21:39 39.18202 -9.34592 13400 ft 395 kts 197°
2026-05-06 21:39 39.15561 -9.35535 12672 ft 392 kts 197°
2026-05-06 21:39 39.12949 -9.36468 11958 ft 387 kts 196°
2026-05-06 21:40 39.10361 -9.37392 11270 ft 385 kts 196°
2026-05-06 21:40 39.07769 -9.38313 11032 ft 386 kts 196°
2026-05-06 21:40 39.05183 -9.39232 10963 ft 385 kts 196°
2026-05-06 21:40 39.02597 -9.40149 10982 ft 386 kts 197°
2026-05-06 21:41 39.00003 -9.41067 10983 ft 387 kts 196°
2026-05-06 21:41 38.97408 -9.41987 10981 ft 387 kts 196°
2026-05-06 21:41 38.94817 -9.42906 10981 ft 386 kts 196°
2026-05-06 21:41 38.92230 -9.43823 10982 ft 386 kts 196°
2026-05-06 21:42 38.89685 -9.44724 10973 ft 375 kts 196°
2026-05-06 21:42 38.87231 -9.45589 10747 ft 357 kts 196°
2026-05-06 21:42 38.84884 -9.46417 10501 ft 342 kts 196°
2026-05-06 21:42 38.82634 -9.47211 10260 ft 329 kts 196°
2026-05-06 21:43 38.80464 -9.47978 10017 ft 318 kts 196°
2026-05-06 21:43 38.78366 -9.48720 9844 ft 307 kts 195°
2026-05-06 21:43 38.76351 -9.49435 9714 ft 294 kts 196°
2026-05-06 21:43 38.74406 -9.50123 9578 ft 287 kts 195°
2026-05-06 21:44 38.72487 -9.50797 9438 ft 286 kts 195°
2026-05-06 21:44 38.70567 -9.51470 9305 ft 285 kts 195°
2026-05-06 21:44 38.68677 -9.52132 9179 ft 284 kts 195°
2026-05-06 21:44 38.66745 -9.52810 9040 ft 284 kts 196°
2026-05-06 21:45 38.64823 -9.53486 8470 ft 289 kts 195°
2026-05-06 21:45 38.62928 -9.54154 8330 ft 276 kts 196°
2026-05-06 21:45 38.61112 -9.54792 8199 ft 264 kts 195°
2026-05-06 21:45 38.59330 -9.55163 7817 ft 263 kts 179°
2026-05-06 21:46 38.57535 -9.54599 7190 ft 272 kts 153°
2026-05-06 21:46 38.56102 -9.53040 6738 ft 274 kts 126°
2026-05-06 21:46 38.55368 -9.50823 6321 ft 273 kts 99°
2026-05-06 21:46 38.55454 -9.48419 5863 ft 272 kts 78°
2026-05-06 21:47 38.55811 -9.46076 5407 ft 272 kts 77°
2026-05-06 21:47 38.56179 -9.43711 4958 ft 271 kts 78°
2026-05-06 21:47 38.56547 -9.41359 4525 ft 269 kts 76°
2026-05-06 21:47 38.56910 -9.39017 4096 ft 266 kts 76°
2026-05-06 21:48 38.57252 -9.36758 4013 ft 250 kts 76°
2026-05-06 21:48 38.57566 -9.34659 4029 ft 231 kts 75°
2026-05-06 21:48 38.57857 -9.32717 4029 ft 215 kts 75°
2026-05-06 21:48 38.58137 -9.30861 4032 ft 212 kts 74°
2026-05-06 21:49 38.58419 -9.29013 4035 ft 211 kts 76°
2026-05-06 21:49 38.58689 -9.27224 4032 ft 199 kts 74°
2026-05-06 21:49 38.58972 -9.25533 4027 ft 191 kts 66°
2026-05-06 21:49 38.59573 -9.24091 3988 ft 177 kts 47°
2026-05-06 21:50 38.60468 -9.23070 3773 ft 169 kts 29°
2026-05-06 21:50 38.61518 -9.22455 3573 ft 164 kts 19°
2026-05-06 21:50 38.62565 -9.21898 3361 ft 162 kts 19°
2026-05-06 21:50 38.63586 -9.21354 3151 ft 160 kts 19°
2026-05-06 21:51 38.64615 -9.20807 2930 ft 159 kts 20°
2026-05-06 21:51 38.65631 -9.20265 2725 ft 155 kts 18°
2026-05-06 21:51 38.66601 -9.19748 2514 ft 147 kts 19°
2026-05-06 21:51 38.67518 -9.19258 2322 ft 139 kts 18°
2026-05-06 21:52 38.68388 -9.18795 2138 ft 132 kts 18°
2026-05-06 21:52 38.69201 -9.18361 1973 ft 123 kts 18°
2026-05-06 21:52 38.69982 -9.17945 1812 ft 120 kts 17°
2026-05-06 21:52 38.70451 -9.17696 1719 ft 119 kts 17°
2026-05-06 21:53 38.70698 -9.17560 1663 ft 119 kts 18°
2026-05-06 21:54 38.71193 -9.17295 1536 ft 118 kts 17°
2026-05-06 21:54 38.71957 -9.16885 1395 ft 120 kts 19°
2026-05-06 21:54 38.72728 -9.16476 1210 ft 120 kts 17°
2026-05-06 21:54 38.73495 -9.16064 1047 ft 121 kts 17°
2026-05-06 21:55 38.74268 -9.15652 852 ft 120 kts 18°
2026-05-06 21:55 38.75034 -9.15245 717 ft 119 kts 15°
2026-05-06 21:55 38.75818 -9.14830 564 ft 121 kts 19°
2026-05-06 21:55 38.76597 -9.14407 382 ft 121 kts 18°
2026-05-06 21:56 38.77311 -9.14031 359 ft 93 kts 22°
2026-05-06 21:56 38.77747 -9.13800 364 ft 45 kts 22°
2026-05-06 21:56 38.78015 -9.13659 368 ft 39 kts 22°
2026-05-06 21:56 38.78219 -9.13542 371 ft 27 kts 36°
2026-05-06 21:57 38.78171 -9.13457 365 ft 17 kts 171°
2026-05-06 21:57 38.78044 -9.13424 361 ft 21 kts 167°
2026-05-06 21:57 38.77888 -9.13378 350 ft 25 kts 167°
2026-05-06 21:57 38.77702 -9.13329 337 ft 30 kts 168°
2026-05-06 21:58 38.77497 -9.13298 336 ft 30 kts 167°
2026-05-06 21:58 38.77292 -9.13249 338 ft 30 kts 171°
2026-05-06 21:58 38.77084 -9.13194 339 ft 31 kts 168°
2026-05-06 21:58 38.76938 -9.13154 336 ft 4 kts 167°
2026-05-06 21:59 38.76924 -9.13129 336 ft 5 kts 88°
2026-05-06 21:59 38.76933 -9.13096 334 ft 1 kts 74°
2026-05-06 21:59 38.76934 -9.13083 336 ft 2 kts 81°
2026-05-06 21:59 38.76936 -9.13072 335 ft 1 kts 78°
2026-05-06 22:00 38.76937 -9.13066 335 ft 1 kts 78°
2026-05-06 22:00 38.76937 -9.13063 336 ft 0 kts 78°
2026-05-06 22:08 38.76937 -9.13064 337 ft 0 kts 78°